• MPC Preparation (Info)

  • MPEC 2022-S17 : 2022 RC5

    The following Minor Planet Electronic Circular may be linked-to from your own Web pages, but must not otherwise be redistributed electronically.

    A form allowing access to any MPEC is at the bottom of this page.


    Read MPEC 2022-S16 Read MPEC 2022-S18


    M.P.E.C. 2022-S17                            Issued 2022 September 17, 10:01 UT
    
         The Minor Planet Electronic Circulars contain information on unusual
             minor planets and routine data on comets.  They are published
        on behalf of Division F of the International Astronomical Union by the
              Minor Planet Center, Smithsonian Astrophysical Observatory,
                              Cambridge, MA 02138, U.S.A.
    
                 Prepared using the Tamkin Foundation Computer Network
    
                                  MPC@CFA.HARVARD.EDU
                URL https://www.minorplanetcenter.net/    ISSN 1523-6714
    
                                    2022 RC5                                 
    
    
    Observations:
         K22R05C* C2022 09 15.48794000 58 22.117-00 36 47.01         20.08iUES017F51
         K22R05C  C2022 09 15.49825000 58 24.279-00 35 57.47         19.51iUES017F51
         K22R05C  C2022 09 15.50849200 58 26.438-00 35 08.20         20.17iUES017F51
         K22R05C  C2022 09 15.51873100 58 28.580-00 34 19.26         19.72iUES017F51
         K22R05C mC2022 09 16.25044301 01 31.235+00 27 01.73         20.14GVES017I52
         K22R05C mC2022 09 16.25254901 01 31.782+00 27 12.82         19.53GVES017I52
         K22R05C mC2022 09 16.25675101 01 32.768+00 27 35.35         19.67GVES017I52
         K22R05C  C2022 09 16.40996001 02 08.992+00 41 14.42         20.19GVES017G96
         K22R05C  C2022 09 16.41508401 02 10.201+00 41 42.36         19.73GVES017G96
         K22R05C  C2022 09 16.42082901 02 11.591+00 42 13.25         19.48GVES017G96
         K22R05C  C2022 09 16.42595401 02 12.797+00 42 40.97         20.02GVES017G96
         K22R05C KC2022 09 16.96078801 04 40.70 +01 32 29.6          19.8 GXES017I93
         K22R05C KC2022 09 16.96581501 04 42.04 +01 33 00.2          19.2 GXES017I93
         K22R05C KC2022 09 16.97066901 04 43.30 +01 33 27.2          20.2 GXES017I93
         K22R05C KC2022 09 17.26756 01 06 07.51 +02 02 56.6          19.3 GVES017H36
         K22R05C KC2022 09 17.27481 01 06 09.44 +02 03 40.8          19.5 GVES017H36
         K22R05C KC2022 09 17.28207 01 06 11.39 +02 04 24.3          19.4 GVES017H36
    
    Observer details:
    F51 Pan-STARRS 1, Haleakala.  Observers J. Bulger, T. Lowe, A. Schultz, I.
        Smith.  Measurers K. Chambers, S. Chastel, T. de Boer, J. Fairlamb, H.
        Gao, M. Huber, C.-C. Lin, E. Magnier, Y. Ramanjooloo, R. Wainscoat, R.
        Weryk.  1.8-m Ritchey-Chretien + CCD.
    G96 Mt. Lemmon Survey.  Observer G. J. Leonard.  Measurers E. J. Christensen,
        D. Fay, J. B. Fazekas, D. C. Fuls, A. R. Gibbs, A. D. Grauer, H. Groeller,
        J. K. Hogan, R. A. Kowalski, S. M. Larson, G. J. Leonard, D. Rankin, R. L.
        Seaman, A. Serrano, F. C. Shelly, K. W. Wierzchos.  1.5-m reflector + 10K
        CCD.
    H36 Sandlot Observatory, Scranton.  Observer G. Hug.
    I52 Steward Observatory, Mt. Lemmon Station.  Observer A. Serrano.  Measurers
        E. J. Christensen, D. Fay, J. B. Fazekas, D. C. Fuls, A. R. Gibbs, A. D.
        Grauer, H. Groeller, J. K. Hogan, R. A. Kowalski, S. M. Larson, G. J.
        Leonard, D. Rankin, R. L. Seaman, A. Serrano, F. C. Shelly, K. W.
        Wierzchos.  1.0-m prime focus + CCD.
    I93 St Pardon de Conques.  Observer F. Losse.  0.40-m f/3.7 reflector + CCD.
    
    Orbital elements:
    2022 RC5                                                 Earth MOID = 0.0318 AU
    Epoch 2022 Aug. 9.0 TT = JDT 2459800.5                  Veres                   
    M 335.91607              (2000.0)            P               Q                  
    n   0.26659031     Peri.   64.88329     +0.43289483     -0.90144311             
    a   2.3909646      Node   359.45799     +0.75702670     +0.36447205             
    e   0.6464532      Incl.    9.40034     +0.48940029     +0.23358177             
    P   3.70           H   23.13          G   0.15           U   8                  
    Residuals in seconds of arc
    220915 F51  0.0   0.0     220916 I52  0.0   0.2+    220916 I93  0.1+  1.1+
    220915 F51  0.0   0.1+    220916 G96  0.1+  0.1-    220916 I93  0.1-  0.2-
    220915 F51  0.1+  0.1+    220916 G96  0.1-  0.1+    220917 H36  0.0   0.2+
    220915 F51  0.1-  0.2-    220916 G96  0.2+  0.0     220917 H36  0.3-  0.4+
    220916 I52  0.5-  0.0     220916 G96  0.1-  0.1-    220917 H36  0.3-  0.2-
    220916 I52  0.2+  0.1-    220916 I93  0.3-  0.3-
    
    Ephemeris:
    2022 RC5                 a,e,i = 2.39, 0.65, 9                   q = 0.8453
    Date    TT    R. A. (2000) Decl.     Delta      r    Elong.  Phase     V
    2022 08 18    00 09 02.6 -13 08 13   0.4415  1.3995   145.7    24.0    23.2
    ...
    2022 09 02    00 27 20.4 -09 57 51   0.2710  1.2587   154.2    20.4    21.8
    ...
    2022 09 10    00 41 54.1 -05 58 45   0.1901  1.1851   157.6    18.9    20.9
    ...
    2022 09 16    01 00 25.4 +00 05 49   0.1344  1.1314   158.1    19.4    20.0
    2022 09 17    01 04 49.6 +01 37 01   0.1257  1.1226   157.7    19.8    19.9
    2022 09 18    01 09 49.4 +03 21 26   0.1172  1.1139   157.1    20.6    19.7
    ...
    2022 09 24    02 03 55.4 +21 26 07   0.07290 1.0629   143.6    34.1    19.0
    ...
    2022 10 02    07 13 15.5 +55 34 40   0.06375 0.9996    86.9    89.5    20.3
    ...
    2022 10 17    11 12 06.4 +33 47 59   0.1754  0.9032    53.4   117.7    23.8
    
    M. P. C. Staff               (C) Copyright 2022 MPC           M.P.E.C. 2022-S17
    


    Read MPEC 2022-S16 Read MPEC 2022-S18


    MPEC number:

    Enter an MPEC number in one of the following forms:

    • 1997-B01 (the full form)
    • J97B01 (the packed version of the full form)
    • B01 (the abbreviated form)